OpenBCM V1.13 (Linux)

Packet Radio Mailbox

DB0FHN

[JN59NK Nuernberg]

 Login: GUEST





  
LU9DCE > KEP      06.08.19 20:33l 240 Lines 11921 Bytes #999 (0) @ WW
BID : 29564_LU9DCE
Read: DB1MEA DJ6UX GUEST
Subj: TLE 06 08
Path: DB0FHN<DB0BLO<DB0ERF<OK0NAG<OK0NBR<SV1CMG<ON0AR<GB7CIP<N3HYM<LU9DCE
Sent: 190806/1820Z 29564@LU9DCE.TOR.BA.ARG.SOAM LinBPQ6.0.17

            __    _  _  ___  ____   ___  ____    ____  ____  ____
           (  )  / )( \/ _ \(    \ / __)(  __)  (  _ \(  _ \/ ___)
           / (_/\) \/ (\__  )) D (( (__  ) _)    ) _ ( ) _ (\___ \
           \____/\____/(___/(____/ \___)(____)  (____/(____/(____/
               ESTACION DE PACKET RADIO - BUENOS AIRES (GF05OM)
                   BOLETINES INFORMATIVOS PROGRAMADOS (BIP)
                  SLACKWARE LINUX - HELLOCODELINUX@GMAIL.COM
                          https://slacko.home.blog
+----------------------------------------------------------------------------+
OSCAR 7
1  7530U 74089B   19217.90597878 -.00000030 +00000-0 +92466-4 0  9991
2  7530 101.7474 185.0799 0011708 254.2984 167.6498 12.53639129046328
OSCAR 11 (UoSAT 2)
1 14781U 84021B   19217.93985705 +.00000026 +00000-0 +92765-5 0  9994
2 14781 097.6088 240.3707 0009160 152.2936 207.8768 14.83098769884911
OSCAR 19 (LUSAT)
1 20442U 90005G   19217.84979352 -.00000012 +00000-0 +12043-4 0  9991
2 20442 098.6502 159.7750 0012065 013.1922 346.9575 14.32929802543214
EYESAT A
1 22825U 93061C   19217.91679885 -.00000023 +00000-0 +91963-5 0  9990
2 22825 098.9057 207.6602 0007733 212.4498 147.6208 14.30063541348574
ITAMSAT
1 22826U 93061D   19218.18703600 -.00000016  00000-0  11547-4 0  9995
2 22826  98.8998 207.9221 0008450 199.9885 160.0966 14.30397362349082
RADIO ROSTO
1 23439U 94085A   19217.94108064 -.00000049 +00000-0 -18613-3 0  9996
2 23439 064.8179 038.0979 0146125 103.8513 257.8716 11.27568709013336
JAS 2
1 24278U 96046B   19218.20622577 -.00000038  00000-0 -58389-5 0  9991
2 24278  98.5441   5.0459 0351316 114.1702 249.6584 13.53093026134361
TECHSAT 1B
1 25397U 98043D   19217.83218579 -.00000011  00000-0  14514-4 0  9995
2 25397  98.6901 157.3980 0000226 206.6851 153.4316 14.23668474 94722
ISS (ZARYA)
1 25544U 98067A   19218.68983990  .00000807  00000-0  21457-4 0  9991
2 25544  51.6447 110.7045 0006224 223.9007 182.5911 15.51030646183093
PCSAT
1 26931U 01043C   19218.16095598 -.00000070  00000-0  48656-5 0  9995
2 26931  67.0493 238.6062 0007393 275.1944  84.8313 14.30548598931909
SAUDISAT 1C
1 27607U 02058C   19218.54770223 -.00000047  00000-0  14339-4 0  9994
2 27607  64.5539 260.2259 0079515 247.1630 112.1061 14.75562909894249
CUTE-1
1 27844U 03031E   19217.98622036  .00000017  00000-0  27297-4 0  9997
2 27844  98.6838 225.4772 0008646 249.1474 110.8779 14.22188088835150
CUBESAT XI 4
1 27848U 03031J   19217.92174122 +.00000009 +00000-0 +24147-4 0  9995
2 27848 098.6915 225.9241 0008502 262.4592 097.5620 14.21782168834968
MOZHAYETS 4
1 27939U 03042A   19218.41390026  .00000009  00000-0  10231-4 0  9995
2 27939  98.0485 353.2970 0011709 274.1767  85.8104 14.66793488847682
CUBESAT XI 5
1 28895U 05043F   19218.38732603  .00000077  00000-0  23549-4 0  9998
2 28895  97.9658 359.4670 0016530 193.3018 166.7751 14.63679687734602
CUTE-1.7+APD II
1 32785U 08021C   19217.82330139 +.00000123 +00000-0 +18823-4 0  9997
2 32785 097.5507 215.2706 0014664 101.9439 258.3423 14.88326962610778
DELFI C3
1 32789U 08021G   19217.69108616  .00001205  00000-0  84362-4 0  9992
2 32789  97.4609 265.9005 0011117 327.6761  32.3784 15.07030631614190
SEEDS
1 32791U 08021J   19217.96205503  .00000351  00000-0  40947-4 0  9990
2 32791  97.5284 221.4245 0014974  78.5632 281.7268 14.90844910611300
YUBELEINY
1 32953U 08025A   19218.49831425  .00000020  00000-0  75656-4 0  9999
2 32953  82.5025 114.4184 0020212  24.3653 335.8379 12.43090693508377
PRISM (HITOMI)
1 33493U 09002B   19218.19981264  .00000963  00000-0  89727-4 0  9999
2 33493  98.1206 140.9943 0015857  28.2057 332.0019 14.96691215572400
KKS-1 (KISEKI)
1 33499U 09002H   19217.89244969 +.00000044 +00000-0 +14562-4 0  9990
2 33499 098.3480 058.1305 0010310 057.5576 302.6628 14.75452534565906
SWISSCUBE
1 35932U 09051B   19217.96717376  .00000097  00000-0  32908-4 0  9995
2 35932  98.5926  25.3642 0008037  26.4861 333.6745 14.56297542523804
BEESAT
1 35933U 09051C   19218.10462617  .00000065  00000-0  25613-4 0  9998
2 35933  98.5950  27.2855 0006520  40.3504 319.8175 14.56385051523933
ITUPSAT 1
1 35935U 09051E   19218.12149522  .00000060  00000-0  24879-4 0  9997
2 35935  98.6060  27.5374 0008761  35.2307 324.9467 14.55543328523685
XIWANG-1 (HOPE-1)
1 36122U 09072B   19217.69467012 -.00000010 +00000-0 +83246-4 0  9996
2 36122 100.0736 217.8192 0006794 236.3894 123.6554 13.16350802463192
TISAT 1
1 36799U 10035E   19218.13196690  .00000206  00000-0  26960-4 0  9994
2 36799  98.1616  11.9068 0010928 289.1078  70.8955 14.91128542491989
JUGNU
1 37839U 11058B   19218.53877392  .00000307  00000-0  22002-4 0  9990
2 37839  19.9627  38.5618 0018864 145.4592 247.9198 14.12655093404176
SRMSAT
1 37841U 11058D   19217.96647122 +.00000285 +00000-0 +11606-4 0  9998
2 37841 019.9726 099.8044 0011819 007.3733 106.4875 14.10635808403426
M-CUBED/EXP-1 PRIME
1 37855U 11061F   19217.71700449 +.00001065 +00000-0 +61192-4 0  9994
2 37855 101.7104 137.9644 0173164 294.5035 063.8206 15.05517499423536
HORYU 2
1 38340U 12025D   19218.12309078  .00000119  00000-0  25485-4 0  9998
2 38340  98.3259 258.1586 0010807 336.1940  23.8767 14.75734343388309
STRAND 1
1 39090U 13009E   19217.82471890 -.00000011 +00000-0 +11191-4 0  9993
2 39090 098.4849 062.9663 0009849 139.9298 220.2616 14.35091795337273
SOMP
1 39134U 13015E   19218.50190505  .00000913  00000-0  50852-4 0  9993
2 39134  64.8613 222.2935 0033901 295.7740  63.9890 15.20230326348010
BEESAT 3
1 39135U 13015F   19218.18121696  .00000649  00000-0  41916-4 0  9990
2 39135  64.8680 242.3158 0027941 310.9313  48.9394 15.17528329347603
BEESAT 2
1 39136U 13015G   19218.50024004  .00000451  00000-0  32701-4 0  9995
2 39136  64.8678 245.2518 0021592 301.2575  58.6435 15.16950501347572
CUBEBUG 1
1 39153U 13018D   19218.49018133  .00000113  00000-0  21635-4 0  9990
2 39153  97.9802 316.3450 0017866  44.3319 315.9320 14.80580215339037
ZACUBE
1 39417U 13066B   19217.94121147 +.00000149 +00000-0 +25210-4 0  9997
2 39417 097.5620 228.7312 0057622 234.9466 124.6334 14.81131518308182
TRITON 1
1 39427U 13066M   19218.40019092  .00000231  00000-0  44706-4 0  9998
2 39427  97.6799 192.7771 0114170  10.3181 350.0329 14.67859983305488
GOMX 1
1 39430U 13066Q   19218.37568372  .00000112  00000-0  28902-4 0  9996
2 39430  97.7505 171.7313 0152504 100.5716 261.2709 14.59266560303708
HUMSAT D
1 39433U 13066T   19218.16282086  .00000293  00000-0  33817-4 0  9992
2 39433  97.5501 263.6796 0031938 136.9879 223.3846 14.92219931310303
CUBEBUG 2
1 39440U 13066AA  19218.22680575  .00000147  00000-0  27589-4 0  9999
2 39440  97.6036 213.8021 0078718 287.7070  71.5559 14.75869813307130
FUNCUBE 1
1 39444U 13066AE  19217.98263843  .00000177  00000-0  28147-4 0  9994
2 39444  97.5599 230.7629 0056837 228.2960 131.3384 14.81953494307086
UWE-3
1 39446U 13066AG  19217.94479881 +.00000155 +00000-0 +27441-4 0  9995
2 39446 097.5818 220.6123 0068429 262.5017 096.8417 14.78404248305807
SPROUT
1 39770U 14029E   19218.33827634  .00000500  00000-0  61416-4 0  9996
2 39770  97.8867 321.3215 0007772 289.0118  71.0247 14.87379198282068
UNISAT 6
1 40012U 14033C   19218.21305036  .00000121  00000-0  25519-4 0  9999
2 40012  97.7517  82.7196 0057107 302.2641  57.3042 14.73991834275831
DUCHIFAT 1
1 40021U 14033M   19217.74087127  .00000376  00000-0  44206-4 0  9990
2 40021  97.9229 142.4938 0011429 250.5034 109.4949 14.90653105278708
QB50P1
1 40025U 14033R   19218.35487502  .00000159  00000-0  22874-4 0  9999
2 40025  97.9041 137.9594 0010967 258.7153 101.2831 14.88961597278567
CHUBUSAT 1
1 40300U 14070C   19218.29944609  .00000326  00000-0  17178-4 0  9992
2 40300  97.3244 291.2483 0018667 244.8602 155.3446 15.22121482263413
NUDT-PHONESAT
1 40900U 15049B   19218.47484442  .00001277  00000-0  57399-4 0  9994
2 40900  97.4365 227.3317 0013568  20.9572 124.0440 15.22899630215088
ZDPS 2A
1 40901U 15049C   19218.40144736  .00000595  00000-0  32733-4 0  9994
2 40901  97.4598 223.5205 0014711  38.2428  69.4462 15.17771620214621
ZDPS 2B
1 40902U 15049D   19218.36638409  .00000517  00000-0  29013-4 0  9996
2 40902  97.4547 220.9500 0014581  36.2658  70.7737 15.17601388214592
XW-2A
1 40903U 15049E   19218.39321730  .00000968  00000-0  24725-4 0  9991
2 40903  97.3339 261.4263 0012820 335.7217 151.1288 15.41961289217751
KAITUO 1A
1 40904U 15049F   19218.40597697  .00000467  00000-0  28161-4 0  9993
2 40904  97.4675 219.5810 0015832  43.9183  86.3743 15.15389410214375
OBJECT G
1 40905U 15049G   19218.45921352  .00000275  00000-0  18559-4 0  9995
2 40905  97.4716 217.1360 0016659  38.4617 116.2694 15.14314078214257
XW-2C
1 40906U 15049H   19218.39290942  .00000472  00000-0  28215-4 0  9992
2 40906  97.4684 219.6649 0015882  34.8666  73.5047 15.15707871214378
XW-2D
1 40907U 15049J   19218.36423634  .00000192  00000-0  13455-4 0  9995
2 40907  97.4664 219.3158 0015042  33.4628  73.6309 15.15895751214388
LILACSAT 2
1 40908U 15049K   19218.45395904  .00000001  00000-0  36942-5 0  9990
2 40908  97.4802 218.1969 0016989  38.3560 117.9893 15.13819963214187
XW-2F
1 40910U 15049M   19218.41247381  .00000725  00000-0  39637-4 0  9990
2 40910  97.4624 221.4222 0015627  25.7730  83.9260 15.17348019214406
XW-2B
1 40911U 15049N   19218.47355131  .00000554  00000-0  32404-4 0  9995
2 40911  97.4683 220.0803 0015187  33.6160 119.2888 15.15828529214291
KAITUO 1B
1 40912U 15049P   19218.43453277  .00000602  00000-0  31386-4 0  9994
2 40912  97.4498 225.1555 0015213   8.9316  97.0447 15.19665194214716
TIANWANG 1C (TW-1C)
1 40926U 15051B   19218.40176199  .00006759  00000-0  96927-4 0  9995
2 40926  97.1314 264.5265 0008030 177.1661 309.8491 15.56443078217735
